Weather History for Ortonville, MN

Change the Weather History Date:

Friday, March 14, 2014

  Actual Average (KAQP) Record (KAQP)
Temperature  
Mean Temperature 34 °F -  
Max Temperature 42 °F 31 °F 57 °F (2012)
Min Temperature 26 °F 15 °F 1 °F (1997)
Degree Days  
Heating Degree Days 31    
Moisture  
Dew Point 28 °F    
Average Humidity 72    
Maximum Humidity 86    
Minimum Humidity 61    
Precipitation  
Precipitation 0.00 in - - ()
Sea Level Pressure  
Sea Level Pressure 29.78 in    
Wind  
Wind Speed 14 mph (NNW)    
Max Wind Speed 21 mph    
Max Gust Speed 28 mph    
Visibility 10 miles    
Events      
Averages and records for this station are not official NWS values.
T = Trace of Precipitation, MM = Missing Value Source: NWS Daily Summary

Daily Weather History Graph

Daily Weather History Graph

Search for Another Location

Airport:

Trip Planner

Search our weather history database for the weather conditions in past years. The results will help you decide how hot, cold, wet, or windy it might be!

Date:

Astronomy

Mar. 14, 2014 Rise Set
Actual Time 7:40 AM CDT 7:30 PM CDT
Civil Twilight 7:10 AM CDT 7:59 PM CDT
Nautical Twilight 6:36 AM CDT 8:34 PM CDT
Astronomical Twilight 6:01 AM CDT 9:09 PM CDT
Moon 5:50 PM CDT (3/14) 6:24 AM CDT (3/14)
Length of Visible Light 12h 49m
Length of Day
11h 50m
Waxing Gibbous, 96% of the Moon is Illuminated
Mar 14
Waxing Gibbous
Mar 16
Full
Mar 23
Last Quarter
Mar 30
New
Apr 7
First Quarter

Hourly Weather History & Observations

Time (CDT) Temp. Windchill Dew Point Humidity Pressure Visibility Wind Dir Wind Speed Gust Speed Precip Events Conditions
12:14 AM 41.0 °F 33.1 °F 30.2 °F 65% 29.60 in 10.0 mi NW 15.0 mph 20.7 mph N/A   Clear
12:34 AM 41.0 °F 33.5 °F 28.4 °F 61% 29.60 in 10.0 mi NW 13.8 mph - N/A   Clear
12:53 AM 39.2 °F 30.8 °F 28.4 °F 65% 29.61 in 10.0 mi NW 15.0 mph 18.4 mph N/A   Clear
1:14 AM 39.2 °F 30.5 °F 28.4 °F 65% 29.61 in 10.0 mi NW 16.1 mph 21.9 mph N/A   Clear
1:34 AM 39.2 °F 31.2 °F 28.4 °F 65% 29.61 in 10.0 mi NW 13.8 mph - N/A   Scattered Clouds
1:54 AM 39.2 °F 32.5 °F 26.6 °F 61% 29.62 in 10.0 mi WNW 10.4 mph - N/A   Mostly Cloudy
2:14 AM 39.2 °F 31.6 °F 28.4 °F 65% 29.62 in 10.0 mi NW 12.7 mph 17.3 mph N/A   Overcast
2:34 AM 39.2 °F 32.0 °F 28.4 °F 65% 29.63 in 10.0 mi WNW 11.5 mph - N/A   Mostly Cloudy
2:54 AM 39.2 °F 30.2 °F 28.4 °F 65% 29.63 in 10.0 mi NW 17.3 mph 24.2 mph N/A   Mostly Cloudy
3:14 AM 39.2 °F 31.2 °F 28.4 °F 65% 29.64 in 10.0 mi NW 13.8 mph 18.4 mph N/A   Overcast
3:33 AM 37.4 °F 28.9 °F 28.4 °F 70% 29.64 in 10.0 mi NW 13.8 mph 20.7 mph N/A   Overcast
3:54 AM 37.4 °F 28.9 °F 28.4 °F 70% 29.64 in 10.0 mi WNW 13.8 mph - N/A   Mostly Cloudy
4:14 AM 37.4 °F 28.2 °F 28.4 °F 70% 29.64 in 10.0 mi WNW 16.1 mph 19.6 mph N/A   Scattered Clouds
4:33 AM 35.6 °F 27.1 °F 28.4 °F 75% 29.64 in 10.0 mi WNW 12.7 mph 18.4 mph N/A   Clear
4:54 AM 35.6 °F 27.1 °F 28.4 °F 75% 29.64 in 10.0 mi WNW 12.7 mph - N/A   Clear
5:14 AM 35.6 °F 27.1 °F 28.4 °F 75% 29.65 in 10.0 mi WNW 12.7 mph 18.4 mph N/A   Clear
5:33 AM 35.6 °F 28.0 °F 28.4 °F 75% 29.65 in 10.0 mi WNW 10.4 mph - N/A   Clear
5:54 AM 35.6 °F 27.1 °F 28.4 °F 75% 29.66 in 10.0 mi WNW 12.7 mph 17.3 mph N/A   Clear
6:14 AM 35.6 °F 27.5 °F 28.4 °F 75% 29.66 in 10.0 mi WNW 11.5 mph 18.4 mph N/A   Clear
6:33 AM 33.8 °F 24.8 °F 28.4 °F 81% 29.66 in 10.0 mi WNW 12.7 mph 16.1 mph N/A   Clear
6:54 AM 35.6 °F 27.1 °F 28.4 °F 75% 29.67 in 10.0 mi WNW 12.7 mph 18.4 mph N/A   Scattered Clouds
7:14 AM 35.6 °F 27.1 °F 28.4 °F 75% 29.67 in 10.0 mi WNW 12.7 mph 19.6 mph N/A   Mostly Cloudy
7:33 AM 35.6 °F 26.2 °F 28.4 °F 75% 29.68 in 10.0 mi WNW 15.0 mph 21.9 mph N/A   Overcast
7:54 AM 35.6 °F 26.2 °F 28.4 °F 75% 29.68 in 10.0 mi WNW 15.0 mph 20.7 mph N/A   Overcast
8:14 AM 35.6 °F 26.2 °F 28.4 °F 75% 29.69 in 10.0 mi WNW 15.0 mph 20.7 mph N/A   Overcast
8:33 AM 37.4 °F 28.9 °F 28.4 °F 70% 29.69 in 10.0 mi WNW 13.8 mph - N/A   Overcast
8:54 AM 37.4 °F 29.3 °F 28.4 °F 70% 29.70 in 10.0 mi WNW 12.7 mph - N/A   Overcast
9:14 AM 37.4 °F 28.5 °F 30.2 °F 75% 29.71 in 10.0 mi WNW 15.0 mph - N/A   Overcast
9:34 AM 37.4 °F 28.5 °F 30.2 °F 75% 29.71 in 10.0 mi WNW 15.0 mph 19.6 mph N/A   Overcast
9:54 AM 37.4 °F 28.5 °F 30.2 °F 75% 29.72 in 10.0 mi WNW 15.0 mph - N/A   Overcast
10:14 AM 39.2 °F 31.2 °F 30.2 °F 70% 29.73 in 10.0 mi WNW 13.8 mph 20.7 mph N/A   Overcast
10:34 AM 39.2 °F 30.8 °F 30.2 °F 70% 29.73 in 10.0 mi NW 15.0 mph 21.9 mph N/A   Overcast
10:54 AM 39.2 °F 29.6 °F 30.2 °F 70% 29.74 in 10.0 mi NW 19.6 mph 26.5 mph N/A   Overcast
11:13 AM 39.2 °F 30.2 °F 30.2 °F 70% 29.75 in 10.0 mi NW 17.3 mph 26.5 mph N/A   Overcast
11:34 AM 39.2 °F 29.8 °F 30.2 °F 70% 29.76 in 10.0 mi NW 18.4 mph 27.6 mph N/A   Overcast
11:54 AM 39.2 °F 29.8 °F 30.2 °F 70% 29.77 in 10.0 mi NW 18.4 mph 25.3 mph N/A   Overcast
12:13 PM 39.2 °F 30.2 °F 30.2 °F 70% 29.77 in 10.0 mi NW 17.3 mph 21.9 mph N/A   Overcast
12:34 PM 42.8 °F 34.8 °F 30.2 °F 61% 29.77 in 10.0 mi NW 17.3 mph 21.9 mph N/A   Scattered Clouds
12:54 PM 42.8 °F 35.8 °F 30.2 °F 61% 29.77 in 10.0 mi NW 13.8 mph 23.0 mph N/A   Mostly Cloudy
1:14 PM 42.8 °F 35.1 °F 30.2 °F 61% 29.78 in 10.0 mi NW 16.1 mph 27.6 mph N/A   Mostly Cloudy
1:34 PM 39.2 °F 30.5 °F 33.8 °F 81% 29.79 in 10.0 mi NNW 16.1 mph 21.9 mph N/A   Overcast
1:54 PM 39.2 °F 30.5 °F 32.0 °F 75% 29.81 in 10.0 mi NNW 16.1 mph 21.9 mph N/A   Overcast
2:14 PM 39.2 °F 29.6 °F 32.0 °F 75% 29.81 in 10.0 mi North 19.6 mph 23.0 mph N/A   Overcast
2:34 PM 37.4 °F 28.2 °F 30.2 °F 75% 29.82 in 10.0 mi North 16.1 mph 19.6 mph N/A   Mostly Cloudy
2:54 PM 37.4 °F 27.8 °F 30.2 °F 75% 29.82 in 10.0 mi NNW 17.3 mph - N/A   Overcast
3:14 PM 37.4 °F 26.9 °F 30.2 °F 75% 29.83 in 10.0 mi NNW 20.7 mph - N/A   Overcast
3:33 PM 37.4 °F 28.2 °F 30.2 °F 75% 29.83 in 10.0 mi NNW 16.1 mph 20.7 mph N/A   Overcast
3:54 PM 37.4 °F 28.9 °F 28.4 °F 70% 29.84 in 10.0 mi NW 13.8 mph - N/A   Overcast
4:14 PM 37.4 °F - 28.4 °F 70% 29.85 in 10.0 mi North - - N/A   Mostly Cloudy
4:33 PM 37.4 °F 28.9 °F 28.4 °F 70% 29.86 in 10.0 mi North 13.8 mph 17.3 mph N/A   Overcast
4:54 PM 37.4 °F 29.3 °F 28.4 °F 70% 29.86 in 10.0 mi North 12.7 mph - N/A   Overcast
5:14 PM 37.4 °F 27.8 °F 28.4 °F 70% 29.86 in 10.0 mi NNW 17.3 mph 21.9 mph N/A   Mostly Cloudy
5:33 PM 37.4 °F 28.5 °F 28.4 °F 70% 29.86 in 10.0 mi North 15.0 mph - N/A   Scattered Clouds
5:54 PM 35.6 °F 27.5 °F 28.4 °F 75% 29.87 in 10.0 mi North 11.5 mph - N/A   Scattered Clouds
6:14 PM 35.6 °F 27.5 °F 26.6 °F 70% 29.88 in 10.0 mi North 11.5 mph - N/A   Mostly Cloudy
6:33 PM 35.6 °F 28.6 °F 26.6 °F 70% 29.89 in 10.0 mi North 9.2 mph - N/A   Overcast
6:54 PM 35.6 °F 26.2 °F 26.6 °F 70% 29.90 in 10.0 mi North 15.0 mph - N/A   Overcast
7:14 PM 33.8 °F 25.8 °F 26.6 °F 75% 29.91 in 10.0 mi North 10.4 mph - N/A   Mostly Cloudy
7:33 PM 32.0 °F 23.0 °F 24.8 °F 75% 29.91 in 10.0 mi NNE 11.5 mph - N/A   Scattered Clouds
7:54 PM 30.2 °F 20.2 °F 24.8 °F 80% 29.93 in 10.0 mi North 12.7 mph - N/A   Clear
8:14 PM 30.2 °F 22.6 °F 24.8 °F 80% 29.93 in 10.0 mi North 8.1 mph - N/A   Clear
8:34 PM 28.4 °F 19.1 °F 23.0 °F 80% 29.94 in 10.0 mi North 10.4 mph - N/A   Clear
8:54 PM 28.4 °F 22.2 °F 23.0 °F 80% 29.96 in 10.0 mi North 5.8 mph - N/A   Clear
9:14 PM 28.4 °F 19.7 °F 23.0 °F 80% 29.96 in 10.0 mi NNE 9.2 mph - N/A   Clear
9:34 PM 26.6 °F 18.2 °F 23.0 °F 86% 29.97 in 10.0 mi North 8.1 mph - N/A   Clear
9:54 PM 26.6 °F 19.1 °F 23.0 °F 86% 29.97 in 10.0 mi North 6.9 mph - N/A   Clear
10:13 PM 26.6 °F 19.1 °F 21.2 °F 80% 29.98 in 10.0 mi North 6.9 mph - N/A   Clear
10:34 PM 26.6 °F 20.0 °F 21.2 °F 80% 29.98 in 10.0 mi North 5.8 mph - N/A   Clear
10:54 PM 26.6 °F 22.6 °F 21.2 °F 80% 29.99 in 10.0 mi NNE 3.5 mph - N/A   Clear
11:13 PM 26.6 °F 18.2 °F 21.2 °F 80% 29.99 in 10.0 mi North 8.1 mph - N/A   Clear
11:34 PM 26.6 °F 17.5 °F 17.6 °F 69% 29.98 in 10.0 mi NNE 9.2 mph - N/A   Clear
11:54 PM 26.6 °F 17.5 °F 15.8 °F 64% 29.98 in 10.0 mi NNE 9.2 mph - N/A   Clear